User: anonymous   Login
Location: Unspecified
(51.2667°N, 0.0000°E)
Time: 09:01:47
(UTC+00:00)
Language:

AIST 2D - Orbit

View from above orbital plane
View from above orbital plane
View from above satellite
View from above satellite

Ground track
Ground track

The orbit data is extracted from the following two-line orbital elements,

1 41465U 16026B   19267.18714422  .00001011  00000-0  32998-4 0  9997
2 41465  97.1765 159.8831 0012256 125.1746  25.9465 15.33963899190449
Epoch (UTC): 24 September 2019 04:29:29
Eccentricity: 0.0012256
inclination: 97.1765°
perigee height: 455 km
apogee height: 472 km
right ascension of ascending node: 159.8831°
argument of perigee: 125.1746°
revolutions per day: 15.33963899
mean anomaly at epoch: 25.9465°
orbit number at epoch: 19044

The dashed part of the orbit path shows where the satellite is in the earth's shadow,  

DLR